MILESOVKA Weather Reports


Display with metric or nautical units.
time (UTC)temp
F
wind
direction
speed
MPH
gust
MPH
rain 1hr
in
rain 24hr
in
rain mn
in
humidity
%
barometer
mb
20260510222044 50 130 16.0 0.0 0.00 0.00 0.00 76
20260510211743 50 130 18.0 0.0 0.00 0.00 0.00 76
20260510201744 52 120 14.0 0.0 0.00 0.00 0.00 76
20260510191844 52 130 18.0 0.0 0.00 0.00 0.00 76
20260510181745 55 130 14.0 0.0 0.00 0.00 0.00 71
20260510171744 61 130 12.0 0.0 0.00 0.00 0.00 63
20260510162046 61 120 9.0 0.0 0.00 0.00 0.00 59
20260510151744 64 120 9.0 0.0 0.00 0.00 0.00 59
20260510141745 64 130 9.0 0.0 0.00 0.00 0.00 55
20260510131846 63 140 7.0 0.0 0.00 0.00 0.00 63
20260510121746 63 170 7.0 0.0 0.00 0.00 0.00 63
20260510111746 61 140 7.0 0.0 0.00 0.00 0.00 67
20260510102046 57 140 9.0 0.0 0.00 0.00 0.00 76
20260510091745 55 160 9.0 0.0 0.00 0.00 0.00 76
20260510081745 52 160 9.0 0.0 0.00 0.00 0.00 81
20260510071845 48 170 12.0 0.0 0.00 0.00 0.00 81
20260510061746 45 180 12.0 0.0 0.00 0.00 0.00 93
20260510051746 43 170 14.0 0.0 0.00 0.00 0.00 93
20260510042045 41 150 14.0 0.0 0.00 0.00 0.00 99
20260510031744 41 150 16.0 0.0 0.00 0.00 0.00 99
20260510021746 43 140 16.0 0.0 0.00 0.00 0.00 93
20260510011946 43 150 20.0 0.0 0.00 0.00 0.00 93
20260510001746 41 140 20.0 0.0 0.00 0.00 0.00 99
20260509231745 41 130 24.0 0.0 0.00 0.00 0.00 99